Wind_Speed
33 32 33 33 33 34 36 36 38 37 37 36 37 37 38 39 39 40 40 40 41 42 43 44 45 46 46 47 48 49 50 52 53 54 54 55 56 57 59 60 61 61 62 62
33 33 33 34 33 34 35 35 37 37 37 36 37 38 38 39 39 40 41 41 42 42 43 44 45 46 47 47 48 49 50 51 52 53 54 54 55 55 56 58 59 60 60 61
33 33 34 33 32 33 34 34 35 36 36 36 37 38 39 38 39 39 39 40 40 41 42 42 44 45 45 46 47 48 49 50 51 52 53 54 55 55 55 56 57 59 60 60
32 32 33 32 32 33 34 35 35 35 36 37 37 38 39 39 39 39 40 41 41 41 41 42 42 43 44 45 46 47 48 49 50 51 52 53 54 55 55 55 56 57 59 60
31 32 33 31 31 32 34 34 34 36 37 38 39 40 39 40 41 41 41 42 42 42 42 42 42 43 44 45 46 48 48 48 49 50 51 52 53 54 55 55 55 56 57 59
30 32 33 32 32 32 34 34 34 35 37 38 40 39 38 39 40 41 41 41 42 42 42 42 43 44 45 45 46 47 48 48 49 50 50 52 53 53 54 55 55 55 56 57
30 31 31 31 31 32 33 34 35 36 37 37 38 38 38 39 39 40 40 40 41 41 42 42 43 44 45 45 45 46 46 47 48 48 49 50 51 52 53 53 54 54 55 55
29 31 31 31 32 33 34 35 36 37 37 37 37 38 39 39 40 40 39 40 40 41 42 42 43 44 45 45 45 45 45 45 46 46 47 48 48 49 50 51 51 52 52 53
31 32 33 33 34 34 35 36 36 37 37 37 37 38 38 39 39 39 40 40 41 41 42 42 43 44 44 44 44 44 44 44 45 45 45 46 46 46 47 48 49 49 50 51
32 32 33 34 34 35 35 36 36 37 37 38 39 39 39 39 39 40 40 40 41 41 41 41 41 42 42 43 43 44 43 43 42 43 43 44 44 44 45 45 46 46 47 47
33 33 34 34 34 34 35 36 37 38 38 39 39 39 39 39 40 40 41 41 41 41 41 40 40 40 41 42 42 42 42 42 41 41 41 41 40 41 41 42 43 44 44 44
34 34 34 34 35 35 36 37 37 38 39 39 39 39 40 41 41 42 41 41 41 41 41 41 41 40 40 40 41 41 41 40 40 39 39 39 39 39 39 40 40 40 41 42
35 35 36 36 36 37 38 38 38 38 38 39 39 39 40 40 41 41 41 41 41 41 41 41 41 41 40 40 40 40 39 39 38 38 38 37 37 37 37 37 38 39 39 40
35 35 35 36 37 38 38 38 38 38 38 39 39 39 39 39 39 39 39 40 39 40 40 41 41 40 40 40 39 38 37 37 38 38 37 37 37 37 37 37 37 37 38 39
34 35 35 36 37 37 38 38 38 38 38 39 39 39 39 39 39 38 38 38 38 38 39 39 39 39 39 38 37 37 36 36 36 36 35 36 36 36 36 36 35 35 36 37
33 34 35 36 36 36 37 37 37 37 38 38 38 38 38 38 38 38 38 37 38 38 38 37 37 36 36 36 35 35 34 34 34 34 34 34 34 34 34 34 34 34 34 34
34 34 34 35 35 35 36 36 36 36 36 36 36 37 37 38 38 38 37 37 37 37 37 36 35 34 34 33 33 32 32 32 32 31 31 31 31 31 31 31 32 32 32 32
33 34 34 34 34 34 35 35 36 35 35 36 36 36 37 37 37 37 37 37 36 35 34 33 33 32 32 32 31 30 30 30 29 29 29 29 29 30 29 29 29 29 30 30
33 33 34 34 34 34 34 35 35 35 35 36 36 36 36 36 36 36 35 35 34 33 32 32 32 31 30 30 30 30 29 29 29 28 28 28 27 27 28 28 28 28 28 29
32 33 33 33 34 34 34 34 34 34 35 35 36 36 35 35 34 34 34 33 32 32 32 31 31 30 29 29 29 28 28 28 27 27 28 27 27 27 26 26 26 26 27 27
32 33 33 33 33 33 33 34 34 34 34 34 34 34 34 34 34 33 33 32 31 31 30 30 30 29 29 28 28 28 27 27 27 27 26 26 25 26 25 25 25 25 24 25
33 33 33 33 33 33 33 33 34 34 34 34 33 33 33 32 32 32 31 30 29 29 28 28 28 28 28 27 27 26 26 26 25 25 25 24 24 24 24 24 24 24 24 23
33 33 33 32 32 32 32 32 32 32 32 32 32 31 31 30 29 28 27 27 27 27 26 26 26 25 25 25 24 24 23 23 23 23 23 23 23 23 22 23 22 22 22 22
32 32 32 31 31 31 31 31 31 31 31 31 31 30 30 28 27 26 26 25 25 24 24 24 24 24 23 22 22 21 21 21 21 21 21 21 21 21 21 21 21 21 21 21
31 31 30 30 31 31 30 30 30 30 30 30 29 29 28 27 26 25 25 24 23 23 23 23 23 22 21 20 20 20 20 20 20 20 20 20 20 20 20 20 19 19 19 19
30 30 30 30 30 29 29 29 29 29 29 29 28 28 27 26 25 24 24 24 23 23 22 22 22 21 20 20 19 18 18 18 19 19 19 19 19 19 19 19 18 18 17 17
30 30 30 30 29 29 28 28 28 28 28 28 27 27 26 25 24 24 23 23 23 23 22 22 21 20 19 18 18 17 17 18 18 18 18 18 18 17 17 16 16 16 16 16
Wind_Direction
282 281 279 278 277 275 274 275 276 277 277 278 278 277 277 277 276 276 276 275 274 273 273 270 268 268 268 268 267 267 267 267 267 266 266 265 264 263 262 260 259 258 258 257
282 282 280 279 278 277 275 276 277 277 278 278 278 278 278 278 278 278 277 276 275 274 273 271 269 268 268 269 268 268 268 268 268 267 267 266 266 265 263 261 260 258 258 257
284 284 281 279 279 278 277 278 279 280 280 279 279 279 279 279 278 278 278 278 277 276 274 272 271 270 270 270 270 270 271 270 269 269 268 268 267 266 265 263 261 260 259 258
287 285 282 284 281 280 280 280 280 281 281 280 279 279 279 280 279 279 279 279 279 278 277 275 273 272 271 272 271 271 271 270 270 270 269 269 268 267 266 264 263 260 259 258
289 288 287 286 287 286 284 283 282 282 282 281 280 280 279 280 280 280 280 280 280 279 278 276 275 275 275 274 273 273 272 271 270 271 271 270 269 267 266 265 263 261 260 259
292 292 293 292 291 290 288 287 286 285 284 283 282 281 280 280 281 282 282 281 281 281 280 279 277 277 278 277 276 275 274 273 273 272 272 271 269 268 266 265 264 263 261 259
293 294 295 297 296 294 291 292 290 289 288 287 286 284 282 282 283 283 283 283 283 282 282 282 280 279 280 280 279 278 277 276 276 275 274 272 270 269 267 266 265 263 262 260
296 296 298 298 296 295 294 293 293 292 291 288 287 287 285 284 284 284 284 284 284 284 283 284 283 283 282 282 280 279 279 278 278 277 276 274 272 270 268 267 266 265 263 260
296 297 298 297 296 296 295 294 293 292 292 290 290 289 288 287 286 285 285 285 285 286 285 285 284 284 283 282 280 279 279 279 278 276 276 275 274 272 270 268 266 264 263 262
296 297 297 296 295 295 294 293 293 292 291 290 290 290 291 290 288 287 286 286 286 286 287 287 286 285 285 283 282 281 280 280 279 277 276 276 275 274 272 270 267 265 263 262
295 296 295 295 295 295 295 294 293 292 292 292 291 291 290 290 289 288 287 287 287 287 287 287 287 286 286 284 283 282 282 282 281 280 278 277 276 275 273 270 268 266 265 263
297 297 296 295 295 295 296 296 295 294 293 293 293 292 291 291 291 290 288 288 287 287 286 286 286 286 285 285 284 283 282 281 280 279 279 278 276 275 274 272 269 268 266 264
297 297 297 297 297 297 297 297 297 297 296 295 294 293 293 292 291 290 289 289 288 287 287 287 287 287 286 286 285 283 282 281 279 278 278 278 277 276 275 273 271 269 268 266
297 297 297 297 297 297 298 298 297 297 297 297 295 294 293 293 292 292 291 290 290 290 290 290 289 288 287 287 286 285 283 282 280 278 277 276 276 275 275 274 272 270 268 267
300 299 298 298 298 298 299 299 298 298 297 296 295 295 294 294 294 293 292 291 291 291 292 292 290 290 290 288 287 285 284 282 280 278 277 276 275 274 274 272 271 270 268 268
302 301 300 300 299 299 299 299 298 297 297 297 296 296 296 296 295 294 292 292 291 292 292 292 291 290 289 288 287 285 283 282 281 279 278 277 275 274 273 272 270 270 269 268
304 303 302 301 301 300 300 300 300 299 299 298 298 298 298 298 296 295 293 293 293 293 292 292 292 290 289 288 287 285 283 282 282 280 278 277 276 276 275 273 271 270 269 268
304 304 304 304 303 302 302 302 302 302 302 302 302 301 301 300 298 297 294 294 294 294 293 292 292 291 290 288 286 285 283 282 281 280 279 277 276 276 275 273 272 271 269 268
306 307 307 307 306 306 305 305 305 304 305 305 304 304 303 302 301 300 297 294 293 293 292 292 293 293 291 288 287 286 283 281 281 281 280 280 279 278 276 273 272 271 270 269
309 310 310 309 308 308 308 307 308 308 308 308 307 306 305 304 303 301 299 297 295 294 293 292 292 292 291 290 289 287 284 282 281 281 280 280 279 278 277 275 273 271 271 270
310 310 310 310 310 309 309 309 310 310 310 311 310 309 308 306 305 303 302 299 297 295 294 293 292 292 291 291 289 288 286 283 281 281 280 279 278 279 278 276 274 273 272 272
310 310 310 310 309 309 309 310 310 310 310 311 312 312 311 309 308 306 304 302 299 298 297 295 293 292 292 290 289 287 286 283 281 280 279 278 277 278 277 275 274 274 274 273
311 311 311 311 311 311 311 311 311 311 312 313 314 314 314 313 312 310 309 307 303 301 299 299 298 297 295 292 289 287 286 284 282 279 278 277 277 277 276 275 275 275 273 271
312 312 312 313 313 313 313 313 313 313 314 315 316 316 316 316 315 314 314 312 309 305 303 302 302 300 298 294 291 289 287 285 283 280 279 278 278 279 278 278 277 275 273 272
313 313 313 313 314 314 314 314 314 315 316 317 318 318 318 318 317 315 314 313 312 310 307 306 304 303 300 297 293 291 288 286 284 282 281 279 278 279 279 279 277 276 274 272
314 314 314 314 315 315 316 315 315 316 317 318 319 319 318 318 318 317 316 315 313 312 309 308 306 304 302 300 296 292 289 288 287 285 282 280 280 279 278 277 275 274 273 271
315 315 315 315 315 316 316 317 318 318 318 318 319 319 319 319 319 319 319 318 317 315 312 310 308 306 304 301 298 296 294 292 290 288 285 283 281 280 278 276 273 271 271 271
Height
5533 5531 5530 5529 5528 5527 5525 5523 5522 5522 5521 5521 5518 5516 5514 5513 5512 5511 5510 5509 5508 5507 5507 5506 5505 5505 5505 5504 5504 5504 5504 5503 5504 5504 5504 5504 5505 5505 5506 5508 5510 5512 5515 5517
5524 5523 5520 5519 5519 5517 5515 5514 5513 5511 5511 5510 5507 5506 5504 5502 5501 5500 5499 5498 5496 5495 5494 5493 5492 5491 5491 5490 5490 5489 5489 5489 5488 5488 5488 5488 5489 5489 5489 5490 5492 5494 5497 5500
5515 5514 5511 5511 5511 5509 5507 5505 5503 5501 5502 5499 5497 5495 5494 5492 5490 5488 5487 5485 5484 5482 5481 5480 5479 5478 5477 5476 5476 5475 5474 5474 5473 5473 5473 5472 5472 5472 5473 5474 5475 5477 5480 5482
5506 5505 5502 5505 5501 5499 5497 5496 5494 5491 5490 5488 5486 5485 5483 5481 5478 5477 5475 5473 5472 5470 5468 5467 5465 5464 5464 5463 5462 5461 5459 5458 5458 5457 5457 5456 5456 5456 5457 5457 5458 5460 5462 5465
5498 5495 5494 5495 5493 5490 5488 5487 5485 5482 5480 5477 5475 5473 5472 5469 5467 5465 5463 5461 5459 5457 5456 5454 5453 5451 5450 5449 5447 5446 5444 5443 5442 5441 5441 5440 5440 5440 5440 5441 5442 5443 5445 5447
5490 5487 5485 5488 5484 5481 5479 5476 5475 5472 5469 5466 5464 5462 5462 5458 5455 5453 5451 5449 5447 5445 5443 5441 5440 5438 5436 5435 5433 5431 5430 5428 5427 5426 5425 5424 5424 5424 5424 5424 5425 5426 5427 5429
5483 5480 5478 5478 5475 5472 5470 5468 5465 5461 5458 5455 5452 5450 5449 5446 5444 5441 5439 5437 5434 5432 5430 5428 5426 5424 5423 5421 5419 5417 5415 5414 5412 5410 5409 5408 5408 5407 5407 5408 5408 5409 5411 5413
5476 5472 5474 5470 5466 5464 5461 5457 5454 5451 5447 5445 5442 5439 5437 5434 5432 5429 5427 5425 5422 5420 5418 5416 5413 5411 5409 5407 5405 5403 5401 5400 5398 5396 5394 5393 5392 5391 5391 5391 5392 5393 5394 5396
5469 5468 5464 5460 5457 5454 5451 5447 5444 5440 5437 5434 5432 5429 5426 5423 5420 5418 5415 5413 5410 5408 5406 5404 5400 5398 5396 5394 5391 5389 5387 5385 5383 5381 5380 5378 5377 5376 5376 5375 5376 5377 5378 5380
5462 5460 5456 5452 5448 5445 5441 5437 5434 5430 5427 5424 5421 5418 5415 5412 5409 5406 5404 5401 5398 5396 5393 5391 5388 5385 5382 5380 5377 5375 5374 5372 5369 5367 5366 5364 5363 5362 5361 5361 5361 5362 5363 5365
5453 5451 5448 5444 5440 5436 5432 5428 5424 5421 5417 5413 5410 5407 5404 5401 5398 5395 5392 5389 5386 5384 5381 5379 5376 5373 5369 5366 5364 5362 5360 5358 5356 5354 5352 5351 5350 5349 5348 5348 5347 5348 5349 5350
5444 5441 5437 5434 5430 5426 5422 5418 5414 5410 5406 5403 5399 5395 5392 5389 5386 5383 5380 5377 5374 5371 5369 5366 5363 5360 5357 5354 5351 5348 5346 5344 5342 5341 5339 5338 5337 5337 5335 5335 5335 5335 5335 5336
5435 5431 5427 5423 5420 5416 5412 5408 5404 5400 5395 5392 5388 5384 5380 5377 5373 5370 5367 5364 5361 5358 5356 5353 5350 5347 5344 5341 5338 5335 5333 5331 5329 5328 5327 5326 5325 5325 5324 5324 5323 5322 5322 5323
5425 5421 5418 5414 5410 5406 5402 5397 5393 5389 5385 5380 5377 5373 5369 5365 5362 5358 5355 5352 5349 5346 5342 5339 5336 5334 5331 5328 5325 5323 5320 5318 5317 5316 5315 5314 5313 5313 5312 5312 5312 5311 5311 5311
5416 5412 5408 5404 5400 5395 5391 5387 5383 5379 5375 5370 5366 5362 5358 5354 5350 5347 5343 5340 5337 5334 5330 5327 5324 5321 5318 5315 5312 5310 5308 5306 5305 5304 5303 5302 5301 5301 5301 5300 5300 5300 5300 5300
5407 5402 5398 5394 5390 5385 5381 5377 5373 5369 5364 5360 5355 5351 5347 5343 5339 5335 5331 5328 5325 5322 5318 5315 5312 5309 5306 5303 5301 5299 5297 5295 5294 5292 5291 5291 5290 5290 5289 5289 5289 5289 5289 5289
5398 5394 5389 5385 5380 5376 5371 5367 5363 5358 5354 5349 5345 5340 5336 5332 5328 5324 5320 5317 5313 5310 5307 5304 5300 5297 5295 5292 5290 5288 5286 5285 5283 5282 5281 5280 5280 5279 5279 5279 5278 5278 5278 5278
5389 5384 5380 5375 5371 5366 5362 5357 5353 5348 5344 5339 5334 5330 5325 5321 5317 5313 5309 5305 5302 5299 5296 5293 5290 5287 5284 5282 5280 5278 5276 5275 5273 5272 5271 5271 5270 5269 5269 5269 5268 5268 5268 5268
5381 5376 5371 5367 5362 5357 5353 5348 5343 5339 5334 5329 5325 5320 5315 5311 5306 5302 5298 5294 5291 5288 5286 5282 5279 5277 5274 5272 5270 5268 5267 5265 5264 5263 5263 5262 5261 5260 5259 5259 5259 5259 5259 5259
5373 5368 5363 5358 5353 5349 5344 5339 5335 5330 5325 5320 5315 5310 5306 5301 5296 5292 5288 5284 5281 5278 5275 5272 5270 5267 5265 5262 5260 5259 5257 5256 5255 5254 5253 5253 5252 5251 5251 5250 5249 5249 5249 5249
5365 5360 5355 5350 5345 5340 5336 5331 5326 5321 5316 5311 5306 5301 5296 5291 5287 5282 5278 5275 5271 5268 5266 5263 5260 5258 5255 5253 5251 5249 5248 5247 5246 5245 5245 5244 5243 5243 5242 5241 5241 5241 5241 5240
5357 5352 5347 5342 5337 5333 5328 5323 5318 5313 5308 5303 5298 5293 5288 5283 5278 5273 5269 5266 5262 5259 5257 5254 5251 5249 5246 5244 5242 5241 5239 5238 5237 5237 5236 5236 5235 5235 5234 5234 5233 5233 5233 5233
5349 5344 5339 5334 5330 5325 5320 5315 5310 5305 5300 5295 5290 5285 5280 5275 5270 5266 5262 5258 5254 5252 5249 5246 5243 5240 5238 5236 5234 5233 5231 5230 5229 5229 5229 5228 5228 5227 5227 5226 5226 5226 5225 5225
5341 5336 5332 5327 5322 5317 5313 5308 5303 5298 5293 5288 5283 5278 5273 5268 5264 5259 5255 5252 5248 5245 5242 5239 5236 5234 5231 5229 5228 5226 5225 5223 5223 5222 5222 5221 5221 5220 5220 5219 5219 5219 5218 5218
5334 5329 5324 5320 5315 5310 5306 5301 5296 5291 5286 5281 5277 5272 5267 5262 5258 5254 5250 5246 5243 5240 5237 5233 5230 5228 5225 5223 5221 5220 5218 5217 5217 5216 5215 5215 5214 5214 5213 5213 5212 5212 5212 5212
5326 5322 5317 5312 5308 5303 5299 5294 5290 5285 5280 5276 5271 5266 5261 5257 5253 5249 5245 5241 5238 5234 5231 5228 5225 5222 5219 5217 5215 5214 5212 5211 5210 5210 5209 5208 5208 5208 5207 5207 5207 5206 5206 5206
5319 5315 5310 5306 5301 5297 5292 5288 5283 5279 5274 5270 5265 5261 5256 5252 5248 5244 5240 5237 5233 5229 5226 5223 5220 5217 5214 5212 5210 5208 5207 5206 5205 5204 5203 5202 5202 5202 5201 5201 5201 5201 5201 5202